Regional Weather Roundup
Issued by NWS Wilmington, NC

Home | Current Version | Previous Version | Text Only | Print | Product List | Glossary On
Versions: 1 2 3 4 5 6 7 8 9 10 11 12 13 14 15 16 17 18 19 20 21 22 23 24 25 26 27 28 29 30 31 32 33 34 35 36 37 38 39 40 41 42 43 44 45 46 47 48 49 50
000
ASUS42 KILM 260113
RWRILM
RWRILM
REGIONAL HOURLY WEATHER ROUNDUP
NATIONAL WEATHER SERVICE WILMINGTON NC
900 PM EDT SAT APR 25 2015

NOTE: "FAIR" INDICATES FEW OR NO CLOUDS BELOW 12,000 FEET WITH NO
SIGNIFICANT WEATHER AND/OR OBSTRUCTIONS TO VISIBILITY.

...............WFO WILMINGTON COUNTY WARNING AREA...............

......COASTAL NC AND SC COUNTIES......

CITY           SKY/WX    TMP DP  RH WIND       PRES   REMARKS
WILMINGTON     CLOUDY    69  66  90 SW12      29.60F
N MYRTLE BEACH PTCLDY    68  66  93 SW12      29.62F
MYRTLE BEACH     N/A     70  64  83 SW7       29.65S

......INLAND NC AND SC COUNTIES.......

CITY           SKY/WX    TMP DP  RH WIND       PRES   REMARKS
LUMBERTON      CLOUDY    65  63  93 CALM      29.62R FOG
ELIZABETHTOWN  CLOUDY    64  63  97 NW8G18    29.63R
WHITEVILLE     PTCLDY    67  64  90 SW6       29.61F
FLORENCE       PTCLDY    67  64  90 CALM      29.63R
DARLINGTON     PTCLDY    66  63  88 W5        29.64S

....................REST OF NORTH CAROLINA......................

.........EASTERN NC.........

CITY           SKY/WX    TMP DP  RH WIND       PRES   REMARKS
CAPE HATTERAS  LGT RAIN  55  54  96 NE5       29.66F
JACKSONVILLE   CLOUDY    59  55  88 CALM      29.60F
MOREHEAD CITY  LGT RAIN  61  60  97 E7        29.61F
KENANSVILLE    CLOUDY    59  58  95 CALM      29.63S
NEW BERN       CLOUDY    61  58  90 E3        29.63F
ELIZABETH CITY LGT RAIN  49  47  93 NE13      29.69F

.........CENTRAL NC.........

CITY           SKY/WX    TMP DP  RH WIND       PRES   REMARKS
RALEIGH DURHAM LGT RAIN  51  50  96 N5        29.65S VSB 1/2
ROCKY MOUNT    LGT RAIN  55  54  96 CALM      29.64F FOG
ROANOKE RAPIDS NOT AVBL
FAYETTEVILLE   CLOUDY    61  60  97 N5        29.61S
HOFFMAN        CLOUDY    60  60  99 NE1       29.66S

.........WESTERN NC.........

CITY           SKY/WX    TMP DP  RH WIND       PRES   REMARKS
CHARLOTTE      CLOUDY    60  58  92 CALM      29.64R FOG
GREENSBORO     DRIZZLE   46  45  96 N5        29.66R FOG
HICKORY        NOT AVBL
BOONE          NOT AVBL
ASHEVILLE      NOT AVBL

.....................REST OF SOUTH CAROLINA.....................

.........EASTERN SC.........

CITY           SKY/WX    TMP DP  RH WIND       PRES   REMARKS
CHARLESTON     CLOUDY    71  68  90 S10       29.66F
BEAUFORT MCAS  TSTM      72  70  93 S5        29.64F
HILTON HEAD    DRIZZLE   72  70  94 N3        29.68S

.........CENTRAL SC.........

CITY           SKY/WX    TMP DP  RH WIND       PRES   REMARKS
COLUMBIA       CLOUDY    70  64  81 CALM      29.61F
ORANGEBURG     CLOUDY    70  66  87 S5        29.64S
SUMTER SHAW    MOCLDY    69  65  86 W6        29.61F

.........WESTERN SC.........

CITY           SKY/WX    TMP DP  RH WIND       PRES   REMARKS
GREENVILLE     NOT AVBL
ROCK HILL      CLOUDY    61  60  97 CALM      29.63S FOG
ANDERSON       CLOUDY    67  63  87 SE3       29.61F
CLEMSON        NOT AVBL
GREENWOOD      CLOUDY    67  64  90 S6        29.62F


...................COASTAL AND OFFSHORE REPORTS..................

................LOCAL PIERS AND NC RESERVE................


STATION/POSITION TIME  SKY/WX   TEMP    WIND        PRES    VSBY
                                AIR SEA DIR/SP/G
                 (UTC)          (F)     (DEG/KT/KT) (MB)    (MI)
JOHNY MRCER PIER 0000            68 67  230/  9/ 12 1003.1F
NC RESRV MASNBRO 2345            67     220/  6     1003.0
OCEAN CREST PIER 0017            68 66  210/ 14/ 15 1002.4F
SPRINGMAID  PIER 0000            69 67  180/ 14/ 16 1003.4F


................COASTAL AND OFFSHORE BUOYS................


STATION/POSITION TIME  SKY/WX   TEMP    WIND        PRES    VSBY
                                AIR SEA DIR/SP/G
                 (UTC)          (F)     (DEG/KT/KT) (MB)    (MI)
DIMNDSHOAL 41025 0050            61 70  350/  2/  4 1004.6F
WVE H/P(F/S)=  3/ 6 WND WVE H/P(F/S)=  2/ 4 SWL H/P/D(F/S/D)=  2/180/ 6

CAPE LOOKOUT     0100            63     110/  2/  3 1002.4F
ONSLOW BAY 41036 NOT AVBL
5 WRITEBCH 41038 0008            68 65  250/ 14/ 17 1003.5F
MASONBORO  41110 0019               65                N/A
WVE H/P(F/S)=  3/ 4 WND WVE H/P(F/S)=  2/ 4

WILM HARBR 41108 0011               65                N/A
WVE H/P(F/S)=  5/ 6 WND WVE H/P(F/S)=  5/ 6

27WRITEBCH 41037 0000            69 71  250/ 17/ 19   N/A
FRYING PAN 41013 0050            74 71  230/ 21/ 27 1003.7F
WVE H/P(F/S)=  6/ 6 WND WVE H/P(F/S)=  5/ 6 SWL H/P/D(F/S/D)=  2/100/10

SUNST NRSH 41024 NOT AVBL
CAPRS NRSH 41029 0008            70     230/ 16/ 19 1004.4F
EDISTO     41004 0050            72 71  210/ 16/ 17 1004.0F
WVE H/P(F/S)=  5/ 5 WND WVE H/P(F/S)=  5/ 5 SWL H/P/D(F/S/D)=  2/ 8



..........OFFSHORE BUOYS BEYOND 100 NM OFFSHORE...........
.....IN A TRIANGLE---HAT TO BERMUDA TO BAHAMAS TO HAT.....


STATION/POSITION TIME  SKY/WX   TEMP    WIND        PRES    VSBY
                                AIR SEA DIR/SP/G
                 (UTC)          (F)     (DEG/KT/KT) (MB)    (MI)
150E HAT   41001 NOT AVBL
W BERMUDA  41048 0050            65 69  190/ 16/ 19 1011.6F
WVE H/P(F/S)=  6/ 8 WND WVE H/P(F/S)=  3/ 6 SWL H/P/D(F/S/D)=  5/ 8

ATLANTIC S 41049 0050            71 77  330/  6/ 10 1015.3R
WVE H/P(F/S)=  7/ 9 WND WVE H/P(F/S)=  2/ 3 SWL H/P/D(F/S/D)=  7/340/ 9

E BAHAMAS  41046 0050            79 81  340/  2/  4 1014.4R
WVE H/P(F/S)=  3/ 8 WND WVE H/P(F/S)=  2/ 4 SWL H/P/D(F/S/D)=  3/ 60/ 8

NE BAHAMAS 41047 0050            74 77  160/  8/ 10 1014.2F
WVE H/P(F/S)=  7/ 8 WND WVE H/P(F/S)=  2/ 4 SWL H/P/D(F/S/D)=  7/330/ 8

120E CANVRL41010 0020            79 80  190/ 17/ 21 1009.7F

END



USA.gov is the U.S. government's official web portal to all federal, state and local government web resources and services.